JST824 YSSY-YBBN

Flight info

Callsign JST824
Flight time 1h 10m
Altitude 35000
Route OLSEM Y193 BANDA H252 BN
Aircraft A320/M-SDE3FGHIRWY/LB1

Departure

Time 2026-04-24 11:43
Airport Sydney Kingsford Smith International Airport (YSSY)

Arrival

Time 2026-04-24 12:53
Airport Brisbane International Airport (YBBN)
Time Latitude Longitude Altitude Speed Heading
2026-04-24 11:12 -33.93524 151.17766 30 ft 0 kts 279°
2026-04-24 11:30 -33.93526 151.17776 30 ft 4 kts 280°
2026-04-24 11:31 -33.93530 151.17808 30 ft 4 kts 274°
2026-04-24 11:31 -33.93528 151.17835 30 ft 4 kts 210°
2026-04-24 11:31 -33.93525 151.17838 30 ft 2 kts 190°
2026-04-24 11:31 -33.93550 151.17833 30 ft 4 kts 190°
2026-04-24 11:32 -33.93577 151.17828 30 ft 4 kts 190°
2026-04-24 11:32 -33.93604 151.17822 30 ft 4 kts 190°
2026-04-24 11:32 -33.93613 151.17820 30 ft 0 kts 190°
2026-04-24 11:34 -33.93633 151.17816 30 ft 7 kts 191°
2026-04-24 11:34 -33.93710 151.17793 30 ft 14 kts 195°
2026-04-24 11:35 -33.93814 151.17764 30 ft 16 kts 186°
2026-04-24 11:35 -33.93934 151.17789 29 ft 19 kts 168°
2026-04-24 11:35 -33.94074 151.17821 29 ft 21 kts 169°
2026-04-24 11:35 -33.94223 151.17860 30 ft 23 kts 168°
2026-04-24 11:36 -33.94327 151.17888 30 ft 24 kts 166°
2026-04-24 11:36 -33.94514 151.17881 30 ft 18 kts 177°
2026-04-24 11:36 -33.94600 151.17902 30 ft 19 kts 167°
2026-04-24 11:36 -33.94783 151.17950 30 ft 21 kts 169°
2026-04-24 11:37 -33.94936 151.17988 30 ft 23 kts 168°
2026-04-24 11:37 -33.95042 151.18014 30 ft 21 kts 168°
2026-04-24 11:37 -33.95095 151.18127 30 ft 18 kts 79°
2026-04-24 11:37 -33.95071 151.18270 30 ft 17 kts 78°
2026-04-24 11:38 -33.95047 151.18408 30 ft 17 kts 77°
2026-04-24 11:38 -33.95022 151.18547 30 ft 18 kts 76°
2026-04-24 11:38 -33.95001 151.18654 30 ft 7 kts 77°
2026-04-24 11:38 -33.94995 151.18685 29 ft 2 kts 77°
2026-04-24 11:39 -33.94993 151.18698 29 ft 0 kts 78°
2026-04-24 11:42 -33.94987 151.18728 28 ft 8 kts 78°
2026-04-24 11:42 -33.94997 151.18824 26 ft 16 kts 136°
2026-04-24 11:43 -33.95220 151.18891 24 ft 68 kts 167°
2026-04-24 11:43 -33.95916 151.19075 28 ft 135 kts 168°
2026-04-24 11:43 -33.97005 151.19360 226 ft 174 kts 169°
2026-04-24 11:43 -33.98195 151.19807 979 ft 181 kts 147°
2026-04-24 11:44 -33.98995 151.20941 1837 ft 180 kts 121°
2026-04-24 11:44 -33.99674 151.22290 2289 ft 197 kts 120°
2026-04-24 11:44 -34.00425 151.23775 2539 ft 219 kts 121°
2026-04-24 11:44 -34.01458 151.25205 2943 ft 241 kts 139°
2026-04-24 11:45 -34.02803 151.26536 3554 ft 256 kts 140°
2026-04-24 11:45 -34.04201 151.27900 4385 ft 261 kts 140°
2026-04-24 11:45 -34.05634 151.29296 5025 ft 266 kts 140°
2026-04-24 11:45 -34.07081 151.30709 5924 ft 268 kts 139°
2026-04-24 11:46 -34.08545 151.32142 6793 ft 272 kts 139°
2026-04-24 11:46 -34.10021 151.33586 7604 ft 275 kts 138°
2026-04-24 11:46 -34.11255 151.35338 8384 ft 276 kts 115°
2026-04-24 11:46 -34.11738 151.37568 9172 ft 277 kts 90°
2026-04-24 11:47 -34.11367 151.39823 9954 ft 281 kts 66°
2026-04-24 11:47 -34.10223 151.41766 10681 ft 287 kts 50°
2026-04-24 11:47 -34.08840 151.43603 11132 ft 302 kts 49°
2026-04-24 11:47 -34.07368 151.45454 11745 ft 309 kts 43°
2026-04-24 11:48 -34.05579 151.46942 12391 ft 318 kts 30°
2026-04-24 11:48 -34.03467 151.47926 12565 ft 342 kts 17°
2026-04-24 11:48 -34.01125 151.48683 12974 ft 353 kts 17°
2026-04-24 11:48 -33.98727 151.49453 13585 ft 357 kts 17°
2026-04-24 11:49 -33.96308 151.50232 14220 ft 362 kts 17°
2026-04-24 11:49 -33.93858 151.51028 14795 ft 365 kts 17°
2026-04-24 11:49 -33.91393 151.51831 15368 ft 368 kts 17°
2026-04-24 11:49 -33.88900 151.52647 15935 ft 371 kts 17°
2026-04-24 11:50 -33.86429 151.53458 16484 ft 374 kts 17°
2026-04-24 11:50 -33.83904 151.54283 17034 ft 378 kts 17°
2026-04-24 11:50 -33.81346 151.55118 17586 ft 381 kts 17°
2026-04-24 11:50 -33.78764 151.55959 18160 ft 384 kts 17°
2026-04-24 11:51 -33.76173 151.56803 18726 ft 387 kts 17°
2026-04-24 11:51 -33.73601 151.57641 19215 ft 390 kts 17°
2026-04-24 11:51 -33.70956 151.58500 19702 ft 393 kts 17°
2026-04-24 11:51 -33.68301 151.59364 20194 ft 397 kts 17°
2026-04-24 11:52 -33.65649 151.60325 20668 ft 399 kts 24°
2026-04-24 11:52 -33.63157 151.61786 21132 ft 399 kts 34°
2026-04-24 11:52 -33.60823 151.63620 21591 ft 401 kts 36°
2026-04-24 11:52 -33.58482 151.65469 22046 ft 404 kts 36°
2026-04-24 11:53 -33.56116 151.67330 22492 ft 407 kts 36°
2026-04-24 11:53 -33.53732 151.69201 22927 ft 411 kts 36°
2026-04-24 11:53 -33.51321 151.71078 23364 ft 414 kts 34°
2026-04-24 11:53 -33.48732 151.72645 23794 ft 420 kts 24°
2026-04-24 11:54 -33.45954 151.73693 24182 ft 426 kts 17°
2026-04-24 11:54 -33.43078 151.74621 24548 ft 428 kts 17°
2026-04-24 11:54 -33.40184 151.75557 24913 ft 431 kts 17°
2026-04-24 11:54 -33.37281 151.76492 25280 ft 433 kts 17°
2026-04-24 11:55 -33.34361 151.77435 25641 ft 436 kts 17°
2026-04-24 11:55 -33.31426 151.78380 25996 ft 438 kts 17°
2026-04-24 11:55 -33.28470 151.79331 26340 ft 441 kts 17°
2026-04-24 11:55 -33.25534 151.80276 26684 ft 443 kts 17°
2026-04-24 11:56 -33.22545 151.81242 27022 ft 445 kts 17°
2026-04-24 11:56 -33.19545 151.82212 27364 ft 448 kts 17°
2026-04-24 11:56 -33.16524 151.83193 27705 ft 450 kts 17°
2026-04-24 11:56 -33.13487 151.84176 28050 ft 453 kts 17°
2026-04-24 11:57 -33.10433 151.85156 28395 ft 456 kts 17°
2026-04-24 11:57 -33.07363 151.86142 28744 ft 458 kts 17°
2026-04-24 11:57 -33.04271 151.87133 29070 ft 461 kts 17°
2026-04-24 11:57 -33.01159 151.88131 29406 ft 463 kts 17°
2026-04-24 11:58 -32.98033 151.89132 29736 ft 465 kts 17°
2026-04-24 11:58 -32.94909 151.90133 30201 ft 465 kts 17°
2026-04-24 11:58 -32.91821 151.91123 30639 ft 464 kts 17°
2026-04-24 11:58 -32.88694 151.92121 31023 ft 464 kts 17°
2026-04-24 11:59 -32.85563 151.93123 31396 ft 464 kts 17°
2026-04-24 11:59 -32.82482 151.94110 31764 ft 464 kts 17°
2026-04-24 11:59 -32.79354 151.95111 32141 ft 464 kts 17°
2026-04-24 11:59 -32.76227 151.96108 32521 ft 464 kts 17°
2026-04-24 12:00 -32.73102 151.97103 32898 ft 465 kts 18°
2026-04-24 12:00 -32.69973 151.98099 33285 ft 465 kts 18°
2026-04-24 12:00 -32.66849 151.99094 33665 ft 465 kts 18°
2026-04-24 12:00 -32.63720 152.00089 34042 ft 465 kts 18°
2026-04-24 12:01 -32.60623 152.01073 34434 ft 465 kts 18°
2026-04-24 12:01 -32.57498 152.02065 34753 ft 465 kts 18°
2026-04-24 12:01 -32.54367 152.03055 35052 ft 465 kts 18°
2026-04-24 12:01 -32.51234 152.04045 35347 ft 465 kts 18°
2026-04-24 12:02 -32.48104 152.05037 35465 ft 468 kts 18°
2026-04-24 12:02 -32.44939 152.06041 35490 ft 474 kts 18°
2026-04-24 12:02 -32.38574 152.08054 35491 ft 477 kts 18°
2026-04-24 12:03 -32.32154 152.10081 35490 ft 477 kts 18°
2026-04-24 12:03 -32.25724 152.12112 35493 ft 478 kts 18°
2026-04-24 12:04 -32.19248 152.14153 35493 ft 488 kts 18°
2026-04-24 12:04 -32.13041 152.16108 35486 ft 494 kts 18°
2026-04-24 12:05 -32.06428 152.18186 35487 ft 495 kts 18°
2026-04-24 12:05 -31.99757 152.20277 35489 ft 495 kts 18°
2026-04-24 12:06 -31.93088 152.22374 35487 ft 495 kts 18°
2026-04-24 12:06 -31.86458 152.24441 35488 ft 496 kts 17°
2026-04-24 12:07 -31.79784 152.26509 35492 ft 496 kts 18°
2026-04-24 12:07 -31.73099 152.28600 35494 ft 496 kts 18°
2026-04-24 12:08 -31.66413 152.30690 35492 ft 496 kts 18°
2026-04-24 12:08 -31.59759 152.32767 35493 ft 497 kts 18°
2026-04-24 12:09 -31.53069 152.34838 35496 ft 497 kts 18°
2026-04-24 12:09 -31.46417 152.36885 35500 ft 497 kts 18°
2026-04-24 12:10 -31.39716 152.38960 35501 ft 497 kts 18°
2026-04-24 12:11 -31.29704 152.42062 35501 ft 497 kts 18°
2026-04-24 12:11 -31.23004 152.44128 35501 ft 497 kts 18°
2026-04-24 12:12 -31.16302 152.46182 35499 ft 498 kts 18°
2026-04-24 12:12 -31.09635 152.48231 35498 ft 497 kts 18°
2026-04-24 12:13 -31.02934 152.50297 35499 ft 498 kts 18°
2026-04-24 12:13 -30.96225 152.52353 35499 ft 498 kts 18°
2026-04-24 12:14 -30.89542 152.54391 35497 ft 498 kts 18°
2026-04-24 12:14 -30.82818 152.56448 35496 ft 498 kts 18°
2026-04-24 12:15 -30.76161 152.58568 35494 ft 497 kts 20°
2026-04-24 12:15 -30.69550 152.60983 35494 ft 496 kts 22°
2026-04-24 12:16 -30.63007 152.63470 35493 ft 497 kts 21°
2026-04-24 12:16 -30.56395 152.65897 35495 ft 497 kts 21°
2026-04-24 12:17 -30.49819 152.68255 35493 ft 497 kts 21°
2026-04-24 12:17 -30.43200 152.70635 35489 ft 497 kts 21°
2026-04-24 12:18 -30.36614 152.73007 35485 ft 497 kts 21°
2026-04-24 12:18 -30.29988 152.75392 35482 ft 497 kts 20°
2026-04-24 12:19 -30.23370 152.77776 35474 ft 497 kts 20°
2026-04-24 12:19 -30.16793 152.80145 35478 ft 497 kts 20°
2026-04-24 12:20 -30.10182 152.82510 35475 ft 497 kts 20°
2026-04-24 12:20 -30.04693 152.84472 35469 ft 497 kts 20°
2026-04-24 12:21 -29.97009 152.87219 35465 ft 496 kts 20°
2026-04-24 12:21 -29.91480 152.89194 35464 ft 496 kts 20°
2026-04-24 12:22 -29.84928 152.91536 35461 ft 496 kts 20°
2026-04-24 12:22 -29.78331 152.93883 35458 ft 495 kts 19°
2026-04-24 12:23 -29.71747 152.96219 35451 ft 495 kts 19°
2026-04-24 12:23 -29.65170 152.98551 35452 ft 494 kts 19°
2026-04-24 12:24 -29.58590 153.00890 35449 ft 494 kts 19°
2026-04-24 12:24 -29.52061 153.03211 35447 ft 493 kts 19°
2026-04-24 12:25 -29.45500 153.05527 35442 ft 493 kts 19°
2026-04-24 12:25 -29.38954 153.07823 35439 ft 493 kts 18°
2026-04-24 12:26 -29.32395 153.10138 35438 ft 492 kts 18°
2026-04-24 12:26 -29.25841 153.12453 35437 ft 492 kts 18°
2026-04-24 12:27 -29.19331 153.14754 35433 ft 492 kts 18°
2026-04-24 12:27 -29.12786 153.17057 35430 ft 491 kts 18°
2026-04-24 12:28 -29.06237 153.19352 35426 ft 491 kts 18°
2026-04-24 12:28 -28.99730 153.21622 35423 ft 491 kts 18°
2026-04-24 12:29 -28.93185 153.23909 35424 ft 490 kts 17°
2026-04-24 12:29 -28.86704 153.26177 35421 ft 490 kts 17°
2026-04-24 12:30 -28.80178 153.28462 35090 ft 484 kts 17°
2026-04-24 12:30 -28.76991 153.29576 34376 ft 486 kts 17°
2026-04-24 12:30 -28.73750 153.30705 33598 ft 486 kts 17°
2026-04-24 12:30 -28.70515 153.31831 32897 ft 484 kts 17°
2026-04-24 12:31 -28.67303 153.32948 32304 ft 479 kts 17°
2026-04-24 12:31 -28.64158 153.34042 31639 ft 477 kts 17°
2026-04-24 12:31 -28.60998 153.35141 31077 ft 472 kts 18°
2026-04-24 12:31 -28.57881 153.36225 30586 ft 466 kts 18°
2026-04-24 12:32 -28.54793 153.37296 30040 ft 459 kts 18°
2026-04-24 12:32 -28.51743 153.38352 29394 ft 455 kts 18°
2026-04-24 12:32 -28.48730 153.39396 28723 ft 451 kts 18°
2026-04-24 12:32 -28.45731 153.40435 28050 ft 448 kts 19°
2026-04-24 12:33 -28.42790 153.41454 27396 ft 445 kts 19°
2026-04-24 12:33 -28.39824 153.42479 26751 ft 443 kts 19°
2026-04-24 12:33 -28.36877 153.43499 26123 ft 440 kts 19°
2026-04-24 12:33 -28.33948 153.44512 25514 ft 437 kts 19°
2026-04-24 12:34 -28.31045 153.45517 24922 ft 435 kts 19°
2026-04-24 12:34 -28.28196 153.46504 24357 ft 432 kts 19°
2026-04-24 12:34 -28.25312 153.47501 23757 ft 429 kts 20°
2026-04-24 12:34 -28.22472 153.48479 23215 ft 424 kts 20°
2026-04-24 12:35 -28.19656 153.49419 22741 ft 419 kts 16°
2026-04-24 12:35 -28.16771 153.49905 22262 ft 418 kts
2026-04-24 12:35 -28.13872 153.49762 21780 ft 417 kts 354°
2026-04-24 12:35 -28.11054 153.49189 21306 ft 414 kts 352°
2026-04-24 12:36 -28.08228 153.48598 20806 ft 411 kts 352°
2026-04-24 12:36 -28.05421 153.48016 20314 ft 408 kts 352°
2026-04-24 12:36 -28.02633 153.47441 19801 ft 406 kts 352°
2026-04-24 12:36 -27.99853 153.46867 19288 ft 403 kts 352°
2026-04-24 12:37 -27.97132 153.46304 18778 ft 402 kts 352°
2026-04-24 12:37 -27.94351 153.45729 18209 ft 399 kts 352°
2026-04-24 12:37 -27.91659 153.45172 17701 ft 395 kts 352°
2026-04-24 12:37 -27.88959 153.44613 17188 ft 391 kts 352°
2026-04-24 12:38 -27.86286 153.44059 16683 ft 388 kts 352°
2026-04-24 12:38 -27.83638 153.43512 16175 ft 384 kts 352°
2026-04-24 12:38 -27.81042 153.42978 15671 ft 382 kts 352°
2026-04-24 12:39 -27.73279 153.41382 14183 ft 374 kts 353°
2026-04-24 12:39 -27.70726 153.40857 13650 ft 371 kts 353°
2026-04-24 12:39 -27.68190 153.40335 13161 ft 368 kts 353°
2026-04-24 12:40 -27.65682 153.39818 12675 ft 364 kts 353°
2026-04-24 12:40 -27.63219 153.39488 12202 ft 357 kts
2026-04-24 12:40 -27.60761 153.39583 11879 ft 349 kts
2026-04-24 12:40 -27.58353 153.39701 11524 ft 344 kts
2026-04-24 12:41 -27.55971 153.39811 11175 ft 339 kts
2026-04-24 12:41 -27.53614 153.39919 10830 ft 337 kts
2026-04-24 12:41 -27.51320 153.40022 10631 ft 328 kts
2026-04-24 12:41 -27.49073 153.40119 10511 ft 318 kts
2026-04-24 12:42 -27.46891 153.40213 10380 ft 308 kts
2026-04-24 12:42 -27.44767 153.40307 10184 ft 303 kts
2026-04-24 12:42 -27.42666 153.40403 9957 ft 301 kts
2026-04-24 12:42 -27.40698 153.40497 9741 ft 300 kts
2026-04-24 12:43 -27.38666 153.40593 9509 ft 299 kts
2026-04-24 12:43 -27.36585 153.40691 9277 ft 298 kts
2026-04-24 12:43 -27.34515 153.40787 8961 ft 297 kts
2026-04-24 12:43 -27.32422 153.40889 8450 ft 303 kts
2026-04-24 12:44 -27.30337 153.40986 8200 ft 298 kts
2026-04-24 12:44 -27.28288 153.41078 7863 ft 297 kts
2026-04-24 12:44 -27.26218 153.41170 7506 ft 297 kts
2026-04-24 12:44 -27.24156 153.41260 7201 ft 296 kts
2026-04-24 12:45 -27.22109 153.41343 6908 ft 295 kts
2026-04-24 12:45 -27.20062 153.41026 6626 ft 298 kts 347°
2026-04-24 12:45 -27.18154 153.40080 6260 ft 302 kts 329°
2026-04-24 12:45 -27.16520 153.38642 5923 ft 302 kts 321°
2026-04-24 12:46 -27.14935 153.37118 5728 ft 291 kts 316°
2026-04-24 12:46 -27.13802 153.35334 5586 ft 272 kts 291°
2026-04-24 12:46 -27.13392 153.33333 5427 ft 259 kts 267°
2026-04-24 12:46 -27.13661 153.31379 5174 ft 249 kts 244°
2026-04-24 12:47 -27.14368 153.29658 4944 ft 243 kts 238°
2026-04-24 12:47 -27.15094 153.27952 4712 ft 239 kts 238°
2026-04-24 12:47 -27.15873 153.26327 4489 ft 231 kts 225°
2026-04-24 12:47 -27.16999 153.25135 4325 ft 215 kts 205°
2026-04-24 12:48 -27.18276 153.24368 4177 ft 206 kts 199°
2026-04-24 12:48 -27.19550 153.23648 3934 ft 203 kts 199°
2026-04-24 12:48 -27.20774 153.22952 3698 ft 195 kts 199°
2026-04-24 12:48 -27.21965 153.22273 3432 ft 188 kts 199°
2026-04-24 12:49 -27.23115 153.21618 3186 ft 182 kts 199°
2026-04-24 12:49 -27.24227 153.20984 2948 ft 176 kts 199°
2026-04-24 12:49 -27.25304 153.20371 2721 ft 171 kts 198°
2026-04-24 12:49 -27.26344 153.19777 2511 ft 162 kts 198°
2026-04-24 12:50 -27.27315 153.19222 2292 ft 150 kts 199°
2026-04-24 12:50 -27.28199 153.18716 2102 ft 137 kts 197°
2026-04-24 12:50 -27.29032 153.18244 1919 ft 135 kts 196°
2026-04-24 12:50 -27.29867 153.17768 1741 ft 134 kts 196°
2026-04-24 12:51 -27.30696 153.17296 1565 ft 132 kts 198°
2026-04-24 12:51 -27.31515 153.16829 1386 ft 132 kts 197°
2026-04-24 12:51 -27.32349 153.16354 1203 ft 134 kts 198°
2026-04-24 12:51 -27.33177 153.15881 1032 ft 133 kts 200°
2026-04-24 12:52 -27.34003 153.15410 844 ft 134 kts 202°
2026-04-24 12:52 -27.34816 153.14945 665 ft 134 kts 202°
2026-04-24 12:52 -27.35656 153.14466 464 ft 137 kts 204°
2026-04-24 12:52 -27.36505 153.13979 270 ft 135 kts 204°
2026-04-24 12:53 -27.37340 153.13503 108 ft 134 kts 205°
2026-04-24 12:53 -27.38120 153.13059 21 ft 112 kts 206°
2026-04-24 12:53 -27.38645 153.12755 23 ft 52 kts 208°
2026-04-24 12:53 -27.38908 153.12586 20 ft 40 kts 220°
2026-04-24 12:54 -27.39045 153.12389 20 ft 26 kts 236°
2026-04-24 12:54 -27.39132 153.12220 19 ft 21 kts 259°
2026-04-24 12:54 -27.39038 153.12164 18 ft 19 kts 22°
2026-04-24 12:54 -27.38914 153.12236 19 ft 21 kts 26°
2026-04-24 12:55 -27.38801 153.12254 18 ft 15 kts 322°
2026-04-24 12:55 -27.38711 153.12268 18 ft 14 kts 27°
2026-04-24 12:55 -27.38646 153.12305 20 ft 6 kts 27°
2026-04-24 12:55 -27.38626 153.12295 18 ft 4 kts 305°
2026-04-24 12:56 -27.38611 153.12265 18 ft 2 kts 291°
2026-04-24 12:56 -27.38610 153.12262 18 ft 0 kts 290°